Location: ??????????
(54.8537°N, 38.8755°E)
Time: 22:05:00
(UTC+00:00)

Transit 2A Rocket - Pass Details

Date: 16 September 2024
Orbit: 582 x 908 km, 66.7° (Epoch: 09 October)

Event Time Altitude Azimuth Distance (km) Brightness Sun altitude
Rises 02:16:05 0° 305° (NW) 3,547 8.0 -7.0°
Reaches altitude 10° 02:18:59 10° 316° (NW) 2,596 7.4 -6.6°
Maximum altitude 02:24:17 30° 16° (NNE) 1,529 6.9 -5.8°
Drops below altitude 10° 02:29:22 10° 78° (ENE) 2,482 9.6 -5.1°
Sets 02:32:04 0° 89° (E) 3,368 10.6 -4.7°
